Hourly Data Report for January 09, 2018

All times are specified in Local Standard Time (LST). Add 1 hour to adjust for Daylight Saving Time where and when it is observed.

OTTAWA INTL A
ONTARIO

45°19'00.000" N
75°40'00.000" W
114.90 m
6106001
71628
YOW

Download Data

Hourly Data (January 2018)
Hourly Data Report for January 9, 2018
Temp Definition
°C
Dew Point Temp Definition
°C
Rel Hum Definition
%
Wind Dir Definition
10's deg

Wind Spd Definition
km/h
Visibility Definition
km
Stn Press Definition
kPa
Hmdx Definition


Wind Chill Definition


Weather Definition


TIME
00:00 Legend Double Dagger -0.3 -1.8 89 24 15 24.1 99.48   -5 LegendNANA
01:00 Legend Double Dagger 0.0 -2.2 85 26 19 16.1 99.52   -5 Snow
02:00 Legend Double Dagger -0.3 -2.2 87 23 14 12.9 99.57   -5 Snow
03:00 Legend Double Dagger -0.3 -2.5 85 24 21 16.1 99.63   -6 Snow
04:00 Legend Double Dagger -0.6 -3.4 81 26 23 24.1 99.71   -6 Mostly Cloudy
05:00 Legend Double Dagger -0.4 -5.0 71 28 34 24.1 99.83   -7 LegendNANA
06:00 Legend Double Dagger -0.8 -4.6 76 27 18 24.1 99.95   -6 LegendNANA
07:00 Legend Double Dagger -1.1 -5.1 74 26 19 24.1 100.09   -6 Mostly Cloudy
08:00 Legend Double Dagger -1.5 -6.1 71 27 29 24.1 100.20   -8 LegendNANA
09:00 Legend Double Dagger -1.7 -6.2 72 29 25 24.1 100.32   -8 LegendNANA
10:00 Legend Double Dagger -2.1 -6.2 73 29 18 24.1 100.47   -8 Mostly Cloudy
11:00 Legend Double Dagger -2.4 -6.6 73 29 26 24.1 100.54   -9 LegendNANA
12:00 Legend Double Dagger -2.9 -7.0 74 30 21 24.1 100.57   -9 LegendNANA
13:00 Legend Double Dagger -2.3 -8.0 65 29 24 24.1 100.61   -9 Mostly Cloudy
14:00 Legend Double Dagger -2.0 -8.2 63 30 25 24.1 100.70   -8 LegendNANA
15:00 Legend Double Dagger -1.9 -8.0 63 29 21 24.1 100.81   -8 LegendNANA
16:00 Legend Double Dagger -2.1 -7.9 65 29 20 24.1 100.92   -8 Mostly Cloudy
17:00 Legend Double Dagger -3.8 -8.9 68 27 13 24.1 101.03   -9 LegendNANA
18:00 Legend Double Dagger -4.7 -9.8 68 26 13 24.1 101.17   -10 LegendNANA
19:00 Legend Double Dagger -8.1 -11.9 74 29 9 24.1 101.26   -13 Mainly Clear
20:00 Legend Double Dagger -7.0 -10.6 75 28 11 24.1 101.34   -12 LegendNANA
21:00 Legend Double Dagger -10.9 -12.6 88 23 5 24.1 101.40   -14 LegendNANA
22:00 Legend Double Dagger -8.7 -11.9 78 32 10 24.1 101.42   -14 Clear
23:00 Legend Double Dagger -11.6 -13.0 89 20 7 24.1 101.45   -16 LegendNANA

Notes on Data Quality.

Legend

  • E = Estimated
  • M = Missing
  • NA = Not Available
  • ‡ = Partner data that is not subject to review by the National Climate Archives
Date modified: